CW9417 Weather Reports


Display with metric or nautical units.
time (UTC)temp
F
wind
direction
speed
MPH
gust
MPH
rain 1hr
in
rain 24hr
in
rain mn
in
humidity
%
barometer
mb
20260508082045 55 108 3.0 7.0 0.00 0.00 0.00 18 1019.2
20260508081548 55 88 3.0 8.0 0.00 0.00 0.00 16 1019.2
20260508080818 55 112 4.0 8.0 0.00 0.00 0.00 16 1019.2
20260508080317 55 110 4.0 8.0 0.00 0.00 0.00 16 1019.2
20260508080034 55 108 4.0 9.0 0.00 0.00 0.00 18 1019.2
20260508075540 55 133 3.0 9.0 0.00 0.00 0.00 17 1019.2
20260508074819 55 99 4.0 9.0 0.00 0.00 0.00 14 1019.2
20260508074812 54 160 3.0 9.0 0.00 0.00 0.00 16 1019.2
20260508073818 54 113 3.0 8.0 0.00 0.00 0.00 11 1019.2
20260508073314 54 112 2.0 8.0 0.00 0.00 0.00 6 1019.3
20260508073034 53 115 3.0 8.0 0.00 0.00 0.00 4 1019.2
20260508072312 53 24 4.0 7.0 0.00 0.00 0.00 1 1019.2
20260508071813 53 113 4.0 7.0 0.00 0.00 0.00 1 1019.2
20260508071312 53 97 3.0 7.0 0.00 0.00 0.00 1 1019.1
20260508070816 52 88 2.0 6.0 0.00 0.00 0.00 1 1019.1
20260508070313 52 94 2.0 6.0 0.00 0.00 0.00 1 1019.1
20260508065812 52 116 2.0 6.0 0.00 0.00 0.00 1 1019.0
20260508065313 52 110 2.0 6.0 0.00 0.00 0.00 1 1019.0
20260508065032 52 84 2.0 5.0 0.00 0.00 0.00 1 1018.9
20260508064310 51 106 3.0 6.0 0.00 0.00 0.00 1 1018.9
20260508063809 51 96 3.0 7.0 0.00 0.00 0.00 1 1018.9
20260508063311 51 57 3.0 7.0 0.00 0.00 0.00 1 1018.9
20260508062812 51 102 3.0 7.0 0.00 0.00 0.00 1 1018.9
20260508062309 51 108 3.0 7.0 0.00 0.00 0.00 1 1018.8
20260508061810 51 109 2.0 6.0 0.00 0.00 0.00 1 1018.8
20260508061313 51 109 2.0 5.0 0.00 0.00 0.00 1 1018.8
20260508060806 51 103 2.0 7.0 0.00 0.00 0.00 1 1018.8
20260508060303 51 108 2.0 7.0 0.00 0.00 0.00 1 1018.8
20260508055800 51 109 2.0 6.0 0.00 0.00 0.00 1 1018.7
20260508055306 51 117 2.0 6.0 0.00 0.00 0.00 1 1018.7
20260508054802 51 57 2.0 5.0 0.00 0.00 0.00 1 1018.7
20260508054300 51 103 2.0 6.0 0.00 0.00 0.00 1 1018.6
20260508053800 51 113 2.0 6.0 0.00 0.00 0.00 1 1018.6
20260508053303 51 97 2.0 6.0 0.00 0.00 0.00 1 1018.6
20260508052800 51 112 3.0 6.0 0.00 0.00 0.00 1 1018.5
20260508052300 51 122 2.0 6.0 0.00 0.00 0.00 1 1018.5
20260508051801 51 143 2.0 5.0 0.00 0.00 0.00 1 1018.5
20260508051302 51 113 2.0 4.0 0.00 0.00 0.00 1 1018.4
20260508050800 51 95 2.0 5.0 0.00 0.00 0.00 1 1018.4
20260508050304 51 106 2.0 5.0 0.00 0.00 0.00 1 1018.3
20260508050017 51 105 2.0 5.0 0.00 0.00 0.00 1 1018.3
20260508045258 51 83 2.0 5.0 0.00 0.00 0.00 1 1018.3
20260508044758 51 112 1.0 5.0 0.00 0.00 0.00 1 1018.2
20260508044257 51 119 1.0 4.0 0.00 0.00 0.00 1 1018.2
20260508043758 51 101 1.0 4.0 0.00 0.00 0.00 1 1018.2
20260508043256 51 115 1.0 4.0 0.00 0.00 0.00 1 1018.2
20260508042800 51 87 1.0 4.0 0.00 0.00 0.00 1 1018.2
20260508042515 51 103 1.0 4.0 0.00 0.00 0.00 1 1018.1
20260508041811 51 118 1.0 4.0 0.00 0.00 0.00 1 1018.1
20260508041537 51 64 0.0 4.0 0.00 0.00 0.00 1 1018.1
20260508040757 51 103 1.0 5.0 0.00 0.00 0.00 1 1018.1
20260508040258 51 102 1.0 5.0 0.00 0.00 0.00 1 1018.1
20260508035756 51 103 1.0 4.0 0.00 0.00 0.00 1 1018.0
20260508035258 51 94 1.0 3.0 0.00 0.00 0.00 1 1018.1
20260508034759 51 113 2.0 5.0 0.00 0.00 0.00 1 1018.0
20260508034257 51 122 2.0 5.0 0.00 0.00 0.00 1 1018.1
20260508033757 51 101 2.0 5.0 0.00 0.00 0.00 1 1018.0
20260508033257 51 82 1.0 4.0 0.00 0.00 0.00 1 1018.0
20260508033013 51 64 1.0 4.0 0.00 0.00 0.00 1 1018.0
20260508032245 51 116 1.0 4.0 0.00 0.00 0.00 1 1018.0
20260508031739 51 112 1.0 4.0 0.00 0.00 0.00 1 1018.0
20260508031502 51 115 2.0 5.0 0.00 0.00 0.00 1 1017.9
20260508030726 51 124 2.0 5.0 0.00 0.00 0.00 1 1017.9
20260508030219 51 91 1.0 4.0 0.00 0.00 0.00 1 1017.9
20260508025717 51 109 0.0 4.0 0.00 0.00 0.00 1 1017.8
20260508025214 51 113 1.0 4.0 0.00 0.00 0.00 1 1017.9
20260508024711 51 111 1.0 4.0 0.00 0.00 0.00 1 1017.8
20260508024212 51 87 1.0 5.0 0.00 0.00 0.00 1 1017.8
20260508023709 51 117 1.0 5.0 0.00 0.00 0.00 1 1017.9
20260508023206 51 122 2.0 8.0 0.00 0.00 0.00 1 1017.9
20260508022704 51 55 2.0 8.0 0.00 0.00 0.00 1 1017.9
20260508022207 51 101 2.0 5.0 0.00 0.00 0.00 1 1017.9
20260508021702 51 133 1.0 4.0 0.00 0.00 0.00 1 1017.9
20260508021202 51 107 1.0 4.0 0.00 0.00 0.00 1 1017.9
20260508020703 51 129 2.0 6.0 0.00 0.00 0.00 1 1018.0
20260508020419 51 121 2.0 6.0 0.00 0.00 0.00 1 1018.0
20260508015657 51 72 2.0 6.0 0.00 0.00 0.00 1 1018.0
20260508015158 52 117 2.0 4.0 0.00 0.00 0.00 1 1017.9
20260508014658 52 85 1.0 5.0 0.00 0.00 0.00 1 1017.9
20260508014200 52 92 2.0 5.0 0.00 0.00 0.00 1 1017.9
20260508013659 52 95 2.0 5.0 0.00 0.00 0.00 1 1017.8
20260508013159 52 114 1.0 5.0 0.00 0.00 0.00 1 1017.9
20260508012700 52 93 1.0 5.0 0.00 0.00 0.00 1 1017.9
20260508012159 52 94 2.0 5.0 0.00 0.00 0.00 1 1017.9
20260508011653 52 124 1.0 5.0 0.00 0.00 0.00 1 1018.0
20260508011412 52 121 1.0 5.0 0.00 0.00 0.00 1 1017.9
20260508010903 52 100 1.0 5.0 0.00 0.00 0.00 1 1017.9
20260508010135 52 120 1.0 5.0 0.00 0.00 0.00 1 1017.9
20260508005630 52 116 1.0 5.0 0.00 0.00 0.00 1 1017.9
20260508005622 52 84 1.0 3.0 0.00 0.00 0.00 1 1017.9
20260508004618 52 110 1.0 3.0 0.00 0.00 0.00 1 1018.0
20260508004113 52 112 1.0 3.0 0.00 0.00 0.00 1 1018.0
20260508003607 52 120 1.0 5.0 0.00 0.00 0.00 1 1018.0
20260508003113 53 101 1.0 5.0 0.00 0.00 0.00 1 1018.0
20260508002553 53 113 1.0 4.0 0.00 0.00 0.00 1 1017.9
20260508002049 53 109 1.0 6.0 0.00 0.00 0.00 1 1018.0
20260508001543 53 103 1.0 6.0 0.00 0.00 0.00 1 1017.9
20260508001038 53 116 1.0 2.0 0.00 0.00 0.00 1 1017.9
20260508000758 53 111 1.0 4.0 0.00 0.00 0.00 1 1017.9
20260508000027 53 113 1.0 5.0 0.00 0.00 0.00 1 1017.9
20260507235520 53 109 2.0 6.0 0.00 0.00 0.00 2 1017.9
20260507235011 53 109 2.0 6.0 0.00 0.00 0.00 6 1018.0
20260507234503 54 109 1.0 4.0 0.00 0.00 0.00 7 1018.0
20260507234000 54 114 1.0 4.0 0.00 0.00 0.00 8 1018.0
20260507233451 54 113 2.0 5.0 0.00 0.00 0.00 11 1018.0
20260507232947 54 94 2.0 5.0 0.00 0.00 0.00 12 1018.1
20260507232446 54 103 2.0 5.0 0.00 0.00 0.00 13 1018.1
20260507232207 54 122 2.0 7.0 0.00 0.00 0.00 14 1018.1
20260507231446 54 121 2.0 7.0 0.00 0.00 0.00 9 1018.1
20260507230945 54 84 1.0 6.0 0.00 0.00 0.00 4 1018.1
20260507230448 54 117 1.0 3.0 0.00 0.00 0.00 1 1018.1
20260507225944 54 113 0.0 3.0 0.00 0.00 0.00 1 1018.1
20260507225444 54 92 0.0 3.0 0.00 0.00 0.00 3 1018.0
20260507224941 54 105 1.0 3.0 0.00 0.00 0.00 5 1018.0
20260507224439 55 83 1.0 3.0 0.00 0.00 0.00 7 1018.0
20260507223939 55 105 1.0 4.0 0.00 0.00 0.00 7 1018.0
20260507223440 55 118 1.0 4.0 0.00 0.00 0.00 11 1017.9
20260507222937 55 82 0.0 5.0 0.00 0.00 0.00 12 1017.9
20260507222533 55 96 0.0 5.0 0.00 0.00 0.00 15 1018.0
20260507221436 56 97 0.0 3.0 0.00 0.00 0.00 15 1018.0
20260507220935 56 110 1.0 3.0 0.00 0.00 0.00 14 1018.0
20260507220433 56 90 2.0 6.0 0.00 0.00 0.00 15 1017.9
20260507215937 56 105 1.0 6.0 0.00 0.00 0.00 12 1017.9
20260507215431 56 114 1.0 2.0 0.00 0.00 0.00 8 1017.9
20260507214925 56 91 1.0 3.0 0.00 0.00 0.00 7 1017.9
20260507214419 56 122 0.0 3.0 0.00 0.00 0.00 8 1017.9
20260507213916 55 115 0.0 2.0 0.00 0.00 0.00 9 1017.9
20260507213407 55 100 1.0 7.0 0.00 0.00 0.00 9 1017.9
20260507212901 55 63 1.0 7.0 0.00 0.00 0.00 9 1017.9
20260507212354 55 104 1.0 8.0 0.00 0.00 0.00 4 1017.9
20260507211849 55 27 1.0 8.0 0.00 0.00 0.00 2 1017.8
20260507211833 55 105 2.0 6.0 0.00 0.00 0.00 1 1017.8
20260507210839 55 58 1.0 5.0 0.00 0.00 0.00 1 1017.9
20260507210331 55 105 1.0 4.0 0.00 0.00 0.00 1 1017.9
20260507205826 55 104 2.0 8.0 0.00 0.00 0.00 6 1017.9
20260507205320 55 49 2.0 8.0 0.00 0.00 0.00 11 1017.8
20260507204811 55 27 1.0 7.0 0.00 0.00 0.00 15 1017.9
20260507204306 55 110 1.0 6.0 0.00 0.00 0.00 18 1017.8
20260507203801 55 48 1.0 6.0 0.00 0.00 0.00 23 1017.8
20260507203255 55 127 1.0 3.0 0.00 0.00 0.00 28 1017.8
20260507203248 55 24 1.0 4.0 0.00 0.00 0.00 31 1017.7
20260507202245 56 139 1.0 4.0 0.00 0.00 0.00 36 1017.7
20260507201735 56 90 0.0 4.0 0.00 0.00 0.00 40 1017.7
20260507201230 56 56 0.0 4.0 0.00 0.00 0.00 44 1017.6
20260507200723 56 115 0.0 4.0 0.00 0.00 0.00 47 1017.5
20260507200216 56 98 1.0 5.0 0.00 0.00 0.00 49 1017.5
20260507195711 56 27 2.0 7.0 0.00 0.00 0.00 52 1017.5
20260507195425 56 25 2.0 7.0 0.00 0.00 0.00 54 1017.4
20260507194703 56 46 2.0 6.0 0.00 0.00 0.00 56 1017.4
20260507194154 56 57 1.0 4.0 0.00 0.00 0.00 57 1017.4
20260507193649 56 36 1.0 4.0 0.00 0.00 0.00 58 1017.4
20260507193144 57 127 1.0 5.0 0.00 0.00 0.00 58 1017.3
20260507192636 57 89 1.0 8.0 0.00 0.00 0.00 59 1017.3
20260507192347 57 115 2.0 8.0 0.00 0.00 0.00 58 1017.3
20260507191624 57 309 2.0 8.0 0.00 0.00 0.00 58 1017.2
20260507191118 57 122 2.0 8.0 0.00 0.00 0.00 58 1017.2
20260507190613 57 52 2.0 8.0 0.00 0.00 0.00 58 1017.3
20260507190552 58 66 2.0 8.0 0.00 0.00 0.00 58 1017.2
20260507185613 58 73 1.0 8.0 0.00 0.00 0.00 58 1017.2
20260507185113 58 121 1.0 7.0 0.00 0.00 0.00 58 1017.1
20260507184841 58 124 1.0 5.0 0.00 0.00 0.00 58 1017.2
20260507184341 58 39 1.0 6.0 0.00 0.00 0.00 58 1017.1
20260507183828 59 100 1.0 6.0 0.00 0.00 0.00 58 1017.1
20260507183111 59 105 1.0 6.0 0.00 0.00 0.00 58 1017.1
20260507182611 59 209 2.0 7.0 0.00 0.00 0.00 58 1017.0
20260507182110 60 98 3.0 8.0 0.00 0.00 0.00 58 1017.0
20260507181611 60 39 3.0 8.0 0.00 0.00 0.00 57 1017.0
20260507181110 61 17 2.0 8.0 0.00 0.00 0.00 57 1017.0
20260507180610 61 34 1.0 7.0 0.00 0.00 0.00 56 1017.0
20260507180113 62 56 1.0 4.0 0.00 0.00 0.00 56 1017.0
20260507175610 62 145 1.0 4.0 0.00 0.00 0.00 57 1017.0
20260507175112 61 116 2.0 6.0 0.00 0.00 0.00 57 1017.0
20260507174610 61 151 2.0 8.0 0.00 0.00 0.00 57 1017.0
20260507174110 62 149 1.0 8.0 0.00 0.00 0.00 56 1017.0
20260507173605 62 75 2.0 5.0 0.00 0.00 0.00 55 1016.9
20260507173057 62 254 2.0 5.0 0.00 0.00 0.00 55 1017.0
20260507172554 62 247 1.0 4.0 0.00 0.00 0.00 56 1017.0
20260507172046 62 148 2.0 6.0 0.00 0.00 0.00 55 1016.9
20260507171547 62 82 2.0 7.0 0.00 0.00 0.00 55 1016.8
20260507171058 61 42 2.0 7.0 0.00 0.00 0.00 55 1016.9
20260507170546 61 49 2.0 7.0 0.00 0.00 0.00 55 1016.8
20260507170100 61 77 2.0 7.0 0.00 0.00 0.00 55 1016.9
20260507165544 61 49 2.0 8.0 0.00 0.00 0.00 55 1016.9
20260507165044 62 34 2.0 8.0 0.00 0.00 0.00 54 1016.8
20260507164805 62 31 2.0 7.0 0.00 0.00 0.00 54 1016.8
20260507164044 62 115 2.0 6.0 0.00 0.00 0.00 54 1016.8
20260507163549 62 71 2.0 8.0 0.00 0.00 0.00 55 1016.8
20260507163042 62 105 1.0 8.0 0.00 0.00 0.00 55 1016.8
20260507162541 62 124 1.0 9.0 0.00 0.00 0.00 54 1016.8
20260507162308 62 44 2.0 9.0 0.00 0.00 0.00 54 1016.8
20260507161542 62 4 3.0 9.0 0.00 0.00 0.00 54 1016.8
20260507161045 62 68 2.0 9.0 0.00 0.00 0.00 54 1016.7
20260507160539 62 51 1.0 5.0 0.00 0.00 0.00 54 1016.7
20260507160314 63 201 1.0 5.0 0.00 0.00 0.00 54 1016.7
20260507155535 62 15 2.0 7.0 0.00 0.00 0.00 54 1016.7
20260507155033 62 95 3.0 11.0 0.00 0.00 0.00 52 1016.7
20260507154533 62 33 3.0 12.0 0.00 0.00 0.00 53 1016.7
20260507154035 62 36 3.0 12.0 0.00 0.00 0.00 53 1016.7
20260507153757 62 27 3.0 9.0 0.00 0.00 0.00 53 1016.6
20260507153036 63 78 3.0 9.0 0.00 0.00 0.00 52 1016.6
20260507152536 63 110 3.0 8.0 0.00 0.00 0.00 52 1016.6
20260507152037 63 77 2.0 7.0 0.00 0.00 0.00 51 1016.6
20260507151538 64 123 1.0 5.0 0.00 0.00 0.00 49 1016.7
20260507151531 64 87 1.0 6.0 0.00 0.00 0.00 50 1016.6
20260507150755 64 68 2.0 6.0 0.00 0.00 0.00 51 1016.5
20260507150048 63 42 2.0 6.0 0.00 0.00 0.00 49 1016.5
20260507150029 63 266 2.0 6.0 0.00 0.00 0.00 49 1016.5
20260507145035 64 35 2.0 6.0 0.00 0.00 0.00 49 1016.5
20260507144534 64 231 3.0 7.0 0.00 0.00 0.00 48 1016.5
20260507144040 63 115 2.0 7.0 0.00 0.00 0.00 44 1016.5
20260507143533 64 95 1.0 5.0 0.00 0.00 0.00 41 1016.6
20260507143034 63 46 2.0 6.0 0.00 0.00 0.00 46 1016.5
20260507142533 64 248 2.0 7.0 0.00 0.00 0.00 47 1016.6
20260507142311 64 25 2.0 7.0 0.00 0.00 0.00 45 1016.6
20260507141535 64 127 2.0 7.0 0.00 0.00 0.00 45 1016.6
20260507141257 63 66 1.0 5.0 0.00 0.00 0.00 46 1016.7
20260507140544 63 80 2.0 7.0 0.00 0.00 0.00 47 1016.8
20260507140533 63 240 1.0 7.0 0.00 0.00 0.00 45 1016.8
20260507135534 63 18 2.0 8.0 0.00 0.00 0.00 49 1016.8
20260507135036 63 71 2.0 8.0 0.00 0.00 0.00 50 1016.8
20260507134530 63 105 1.0 5.0 0.00 0.00 0.00 50 1016.8
20260507134029 62 233 2.0 8.0 0.00 0.00 0.00 50 1016.8
20260507133531 62 99 3.0 8.0 0.00 0.00 0.00 47 1016.8
20260507133024 62 130 3.0 7.0 0.00 0.00 0.00 47 1016.8
20260507132518 63 105 2.0 7.0 0.00 0.00 0.00 47 1016.8
20260507132018 64 68 1.0 4.0 0.00 0.00 0.00 48 1016.8
20260507131520 63 96 2.0 5.0 0.00 0.00 0.00 45 1016.7
20260507131016 63 128 2.0 5.0 0.00 0.00 0.00 47 1016.7
20260507130530 64 89 1.0 6.0 0.00 0.00 0.00 47 1016.7
20260507130019 63 96 2.0 6.0 0.00 0.00 0.00 47 1016.7
20260507125515 63 44 2.0 6.0 0.00 0.00 0.00 49 1016.8
20260507125016 63 120 2.0 6.0 0.00 0.00 0.00 50 1016.8
20260507124515 64 109 1.0 4.0 0.00 0.00 0.00 45 1016.9
20260507124236 64 119 1.0 4.0 0.00 0.00 0.00 48 1016.8
20260507123517 63 33 1.0 7.0 0.00 0.00 0.00 48 1016.7
20260507123506 63 139 1.0 7.0 0.00 0.00 0.00 45 1016.8
20260507122517 63 93 1.0 4.0 0.00 0.00 0.00 46 1016.7
20260507122018 63 139 2.0 6.0 0.00 0.00 0.00 49 1016.8
20260507121742 62 266 2.0 7.0 0.00 0.00 0.00 46 1016.8
20260507121016 63 108 1.0 7.0 0.00 0.00 0.00 49 1016.8
20260507120516 63 207 1.0 4.0 0.00 0.00 0.00 48 1016.8
20260507120240 63 104 1.0 6.0 0.00 0.00 0.00 52 1016.8
20260507115507 63 132 1.0 6.0 0.00 0.00 0.00 51 1016.8
20260507114959 62 206 2.0 6.0 0.00 0.00 0.00 51 1016.8
20260507114451 62 122 2.0 5.0 0.00 0.00 0.00 51 1016.8
20260507113946 62 90 1.0 5.0 0.00 0.00 0.00 49 1016.8
20260507113440 62 68 2.0 5.0 0.00 0.00 0.00 46 1016.9
20260507112934 62 328 2.0 6.0 0.00 0.00 0.00 49 1016.8
20260507112441 62 75 2.0 6.0 0.00 0.00 0.00 49 1016.8
20260507112141 62 106 2.0 6.0 0.00 0.00 0.00 50 1016.8
20260507111422 61 107 2.0 6.0 0.00 0.00 0.00 53 1016.8
20260507111132 61 58 1.0 7.0 0.00 0.00 0.00 52 1016.9
20260507110404 61 29 2.0 7.0 0.00 0.00 0.00 53 1016.9
20260507105857 61 32 3.0 7.0 0.00 0.00 0.00 53 1016.9
20260507105350 61 106 3.0 9.0 0.00 0.00 0.00 53 1016.9
20260507104848 61 98 2.0 9.0 0.00 0.00 0.00 52 1016.9
20260507104336 61 162 2.0 6.0 0.00 0.00 0.00 52 1016.9
20260507103834 61 57 2.0 6.0 0.00 0.00 0.00 50 1016.9
20260507103326 61 16 2.0 5.0 0.00 0.00 0.00 49 1016.9
20260507103048 60 112 2.0 5.0 0.00 0.00 0.00 50 1016.9
20260507102315 61 56 1.0 6.0 0.00 0.00 0.00 49 1017.0
20260507101301 61 340 2.0 8.0 0.00 0.00 0.00 51 1016.9
20260507100755 61 57 2.0 5.0 0.00 0.00 0.00 52 1016.8
20260507100250 60 15 2.0 7.0 0.00 0.00 0.00 52 1016.8
20260507095744 60 103 1.0 7.0 0.00 0.00 0.00 51 1016.9
20260507095237 60 243 1.0 7.0 0.00 0.00 0.00 51 1016.8
20260507094732 60 58 1.0 7.0 0.00 0.00 0.00 54 1016.8
20260507094442 60 113 1.0 10.0 0.00 0.00 0.00 52 1016.7
20260507093945 60 81 2.0 10.0 0.00 0.00 0.00 51 1016.8
20260507093657 60 98 2.0 9.0 0.00 0.00 0.00 53 1016.7
20260507092707 59 53 2.0 9.0 0.00 0.00 0.00 53 1016.6
20260507092200 59 304 2.0 9.0 0.00 0.00 0.00 54 1016.6
20260507091655 59 26 2.0 6.0 0.00 0.00 0.00 52 1016.6
20260507091149 59 131 1.0 6.0 0.00 0.00 0.00 53 1016.6
20260507090645 60 99 1.0 6.0 0.00 0.00 0.00 54 1016.6
20260507090138 59 115 1.0 6.0 0.00 0.00 0.00 54 1016.6
20260507085631 59 176 1.0 6.0 0.00 0.00 0.00 55 1016.5
20260507085124 58 130 1.0 5.0 0.00 0.00 0.00 54 1016.5
20260507084618 58 141 1.0 6.0 0.00 0.00 0.00 56 1016.5
20260507084112 58 136 2.0 8.0 0.00 0.00 0.00 57 1016.5
20260507083610 58 76 2.0 8.0 0.00 0.00 0.00 56 1016.5
20260507083058 58 105 1.0 4.0 0.00 0.00 0.00 55 1016.5